WB8ZTP Weather Reports


Display with metric or nautical units.
time (UTC)temp
F
wind
direction
speed
MPH
gust
MPH
rain 1hr
in
rain 24hr
in
rain mn
in
humidity
%
barometer
mb
20260506090053 47 24 4.0 8.0 0.00 0.00 0.00 88 1008.8
20260506084547 47 355 4.0 11.0 0.00 0.00 0.00 89 1008.6
20260506083041 48 31 3.0 10.0 0.00 0.00 0.00 88 1008.4
20260506081539 48 16 4.0 11.0 0.00 0.00 0.00 88 1008.3
20260506073031 49 335 3.0 7.0 0.00 0.00 0.00 88 1007.6
20260506071529 50 342 3.0 9.0 0.00 0.00 0.00 88 1007.6
20260506061520 52 11 0.0 0.0 0.00 0.00 0.00 88 1007.5
20260506044506 57 200 0.0 3.0 0.00 0.00 0.00 87 1008.2
20260506043005 57 200 0.0 5.0 0.00 0.00 0.00 87 1008.3
20260506041504 57 183 0.0 5.0 0.00 0.00 0.00 87 1008.3
20260506040001 57 172 2.0 6.0 0.00 0.00 0.00 87 1008.5
20260506034615 57 193 2.0 6.0 0.00 0.00 0.00 87 1008.8
20260506033059 57 217 3.0 7.0 0.00 0.00 0.00 87 1009.0
20260506031608 57 223 0.0 6.0 0.00 0.00 0.00 87 1009.2
20260506030057 57 215 1.0 7.0 0.00 0.00 0.00 88 1009.0
20260506024616 58 180 1.0 5.0 0.00 0.00 0.00 87 1009.2
20260506023055 58 198 3.0 6.0 0.00 0.00 0.00 87 1009.3
20260506021557 58 221 1.0 6.0 0.00 0.00 0.00 87 1009.4
20260506020054 58 207 1.0 6.0 0.00 0.00 0.00 88 1009.3
20260506014554 58 194 2.0 5.0 0.00 0.00 0.00 88 1009.1
20260506013104 58 199 0.0 5.0 0.00 0.00 0.00 88 1008.8
20260506011605 58 171 0.0 6.0 0.00 0.00 0.00 88 1008.8
20260506010056 58 215 2.0 7.0 0.00 0.00 0.00 88 1009.0
20260506004551 58 242 3.0 8.0 0.00 0.00 0.00 88 1009.1
20260506003050 58 206 2.0 5.0 0.00 0.00 0.00 88 1009.0
20260506001549 58 214 1.0 5.0 0.00 0.00 0.00 88 1009.0
20260506000051 58 222 1.0 6.0 0.00 0.00 0.00 88 1008.9
20260505234548 58 183 0.0 5.0 0.00 0.00 0.00 88 1009.0
20260505233047 59 231 1.0 8.0 0.00 0.00 0.00 88 1009.0
20260505231547 59 213 2.0 7.0 0.00 0.00 0.00 88 1009.3
20260505230056 59 198 2.0 9.0 0.00 0.00 0.00 89 1009.4
20260505224547 59 315 2.0 11.0 0.00 0.00 0.00 89 1009.4
20260505223054 61 232 2.0 13.0 0.00 0.00 0.00 87 1009.3
20260505221540 65 217 4.0 13.0 0.00 0.00 0.00 75 1009.1
20260505220043 68 184 4.0 8.0 0.00 0.00 0.00 65 1008.5
20260505214540 69 169 4.0 10.0 0.00 0.00 0.00 64 1008.3
20260505213051 70 167 6.0 12.0 0.00 0.00 0.00 63 1008.4
20260505211538 69 120 3.0 10.0 0.00 0.00 0.00 67 1008.3
20260505210038 68 194 3.0 10.0 0.00 0.00 0.00 66 1008.6
20260505204537 68 178 4.0 12.0 0.00 0.00 0.00 66 1008.7
20260505203045 68 193 4.0 11.0 0.00 0.00 0.00 66 1008.7
20260505201538 68 191 6.0 11.0 0.00 0.00 0.00 67 1008.9
20260505200037 67 184 4.0 9.0 0.00 0.00 0.00 67 1009.1
20260505194535 67 181 4.0 8.0 0.00 0.00 0.00 67 1009.2
20260505193035 67 182 4.0 9.0 0.00 0.00 0.00 68 1009.5
20260505191534 67 210 2.0 12.0 0.00 0.00 0.00 69 1009.6
20260505190034 66 200 2.0 8.0 0.00 0.00 0.00 69 1009.8
20260505184533 66 184 4.0 12.0 0.00 0.00 0.00 69 1009.9
20260505183033 66 211 2.0 10.0 0.00 0.00 0.00 71 1009.8
20260505181532 65 187 2.0 11.0 0.00 0.00 0.00 73 1009.9
20260505180032 67 208 4.0 13.0 0.00 0.00 0.00 68 1009.9
20260505174531 69 229 6.0 14.0 0.00 0.00 0.00 64 1009.8
20260505173041 69 205 9.0 19.0 0.00 0.00 0.00 63 1009.9
20260505171531 70 171 4.0 19.0 0.00 0.00 0.00 63 1010.0
20260505170036 70 182 7.0 17.0 0.00 0.00 0.00 64 1009.9
20260505164545 70 205 4.0 15.0 0.00 0.00 0.00 65 1009.8
20260505163026 69 174 5.0 15.0 0.00 0.00 0.00 65 1010.1
20260505161524 68 193 5.0 17.0 0.00 0.00 0.00 65 1010.4
20260505153015 66 211 5.0 11.0 0.00 0.00 0.00 69 1010.0
20260505151516 64 234 2.0 12.0 0.00 0.00 0.00 72 1010.1
20260505124502 60 226 3.0 7.0 0.00 0.00 0.00 81 1009.5
20260505123106 60 190 3.0 7.0 0.00 0.00 0.00 81 1009.0
20260505121556 60 160 1.0 7.0 0.00 0.00 0.00 79 1008.9
20260505120055 60 176 3.0 7.0 0.00 0.00 0.00 78 1008.8
20260505114554 60 193 1.0 6.0 0.00 0.00 0.00 77 1008.9
20260505113058 61 170 1.0 6.0 0.00 0.00 0.00 76 1008.8
20260505111556 61 184 3.0 5.0 0.00 0.00 0.00 76 1008.9
20260505101547 62 246 3.0 10.0 0.00 0.00 0.00 71 1008.9
20260505100051 62 179 4.0 10.0 0.00 0.00 0.00 69 1008.9
20260505094544 63 207 5.0 11.0 0.00 0.00 0.00 68 1008.8
20260505093043 63 236 5.0 11.0 0.00 0.00 0.00 67 1008.5
20260505091554 64 238 5.0 14.0 0.00 0.00 0.00 66 1008.5